Weather History for Clarksburg, WV

Change the Weather History Date:

Tuesday, March 5, 2013

  Actual Average Record
Temperature  
Mean Temperature 38 °F -  
Max Temperature 50 °F 53 °F 82 °F (1976)
Min Temperature 27 °F 30 °F -7 °F (1943)
Degree Days  
Heating Degree Days 26    
Moisture  
Dew Point 27 °F    
Average Humidity 65    
Maximum Humidity 93    
Minimum Humidity 41    
Precipitation  
Precipitation 0.31 in - - ()
Sea Level Pressure  
Sea Level Pressure 29.84 in    
Wind  
Wind Speed 3 mph (ENE)    
Max Wind Speed 12 mph    
Max Gust Speed 24 mph    
Visibility 9 miles    
Events Rain , Snow    
Averages and records for this station are not official NWS values.
T = Trace of Precipitation, MM = Missing Value Source: NWS Daily Summary

Daily Weather History Graph

Daily Weather History Graph

Search for Another Location

Airport:

Trip Planner

Search our weather history database for the weather conditions in past years. The results will help you decide how hot, cold, wet, or windy it might be!

Date:

Astronomy

Mar. 05, 2013 Rise Set
Actual Time 6:47 AM EST 6:17 PM EST
Civil Twilight 6:20 AM EST 6:44 PM EST
Nautical Twilight 5:49 AM EST 7:15 PM EST
Astronomical Twilight 5:18 AM EST 7:46 PM EST
Moon 1:56 AM EST (3/5) 11:57 AM EST (3/5)
Length of Visible Light 12h 24m
Length of Day
11h 30m
Last Quarter, 41% of the Moon is Illuminated
Mar 5
Last Quarter
Mar 11
New
Mar 19
First Quarter
Mar 27
Full
Apr 3
Last Quarter

Hourly Weather History & Observations

Time (EST) Temp. Windchill Dew Point Humidity Pressure Visibility Wind Dir Wind Speed Gust Speed Precip Events Conditions
12:53 AM 27.0 °F - 19.0 °F 72% 30.08 in 10.0 mi Calm Calm - N/A   Partly Cloudy
2:53 AM 28.0 °F - 19.9 °F 72% 30.06 in 10.0 mi Calm Calm - N/A   Overcast
3:53 AM 28.0 °F - 21.0 °F 75% 30.04 in 10.0 mi Calm Calm - N/A   Overcast
4:53 AM 28.9 °F - 21.0 °F 72% 30.04 in 10.0 mi Calm Calm - N/A   Overcast
5:53 AM 28.9 °F - 21.0 °F 72% 30.04 in 10.0 mi Calm Calm - N/A   Overcast
6:53 AM 27.0 °F 23.0 °F 21.0 °F 78% 30.04 in 10.0 mi NNE 3.5 mph - N/A   Mostly Cloudy
7:53 AM 28.9 °F - 21.0 °F 72% 30.03 in 10.0 mi Calm Calm - N/A   Partly Cloudy
8:53 AM 33.1 °F - 21.0 °F 61% 30.01 in 10.0 mi Calm Calm - N/A   Clear
9:53 AM 36.0 °F - 21.9 °F 57% 29.99 in 10.0 mi Calm Calm - N/A   Overcast
10:53 AM 37.9 °F 33.5 °F 23.0 °F 55% 29.97 in 10.0 mi NNE 5.8 mph - N/A   Overcast
11:53 AM 39.0 °F 33.4 °F 26.1 °F 60% 29.95 in 10.0 mi NNE 8.1 mph - N/A   Mostly Cloudy
12:53 PM 44.1 °F 40.8 °F 24.1 °F 45% 29.90 in 10.0 mi Variable 5.8 mph - N/A   Partly Cloudy
1:53 PM 48.0 °F - 25.0 °F 41% 29.84 in 10.0 mi Calm Calm - N/A   Partly Cloudy
2:53 PM 50.0 °F - 28.9 °F 44% 29.80 in 10.0 mi Variable 3.5 mph - N/A   Clear
3:53 PM 50.0 °F - 30.9 °F 48% 29.77 in 10.0 mi NE 5.8 mph - N/A   Overcast
4:53 PM 50.0 °F - 33.1 °F 52% 29.73 in 10.0 mi NE 4.6 mph - N/A   Overcast
5:53 PM 50.0 °F - 33.1 °F 52% 29.68 in 10.0 mi East 4.6 mph - N/A   Mostly Cloudy
6:53 PM 48.9 °F - 30.9 °F 50% 29.66 in 10.0 mi East 11.5 mph 17.3 mph N/A   Overcast
7:53 PM 48.0 °F - 28.0 °F 46% 29.62 in 10.0 mi ESE 8.1 mph - N/A   Overcast
8:53 PM 44.1 °F 38.1 °F 35.1 °F 71% 29.62 in 6.0 mi ESE 11.5 mph 24.2 mph 0.02 in Rain Light Rain
9:53 PM 39.9 °F 33.4 °F 35.1 °F 83% 29.62 in 6.0 mi East 10.4 mph - 0.06 in Rain Rain
10:53 PM 37.0 °F 31.0 °F 34.0 °F 89% 29.60 in 6.0 mi East 8.1 mph - 0.14 in Rain Rain
11:47 PM 33.8 °F 29.6 °F 32.0 °F 93% 29.59 in 2.5 mi NE 4.6 mph - 0.08 in Snow Light Snow
11:53 PM 33.1 °F 30.0 °F 30.9 °F 92% 29.60 in 1.8 mi ENE 3.5 mph - 0.09 in Snow Light Snow